Regional Weather Roundup
Issued by NWS

Home | Current Version | Previous Version | Graphics & Text | Print | Product List | Glossary On
Versions: 1 2 3 4 5 6 7 8 9 10 11 12 13 14 15 16 17 18 19 20 21 22 23 24 25 26 27 28 29 30 31 32 33 34 35 36 37 38 39 40 41 42 43 44 45 46 47 48 49 50
000
ASUS43 KFSD 031802
RWRSD

WEATHER ROUNDUP FOR SOUTH DAKOTA
NATIONAL WEATHER SERVICE SIOUX FALLS SD
100 PM CDT FRI JUL 03 2015

NOTE: "FAIR" INDICATES FEW OR NO CLOUDS BELOW 12,000 FEET WITH NO
SIGNIFICANT WEATHER AND/OR OBSTRUCTIONS TO VISIBILITY.


SDZ001>005-009-010-012>017-031900-
NORTHWEST AND NORTH CENTRAL SOUTH DAKOTA

CITY           SKY/WX    TMP DP  RH WIND       PRES   REMARKS
BUFFALO          N/A     82  57  42 SE10      29.97F
FAITH            N/A     79  58  48 CALM      30.03S
MOBRIDGE       MOSUNNY   79  66  64 VRB5      29.97F HAZE
$$

SDZ012>016-024>037-041>051-057-063-072>074-031900-
SOUTHWEST AND SOUTH CENTRAL SOUTH DAKOTA

CITY           SKY/WX    TMP DP  RH WIND       PRES   REMARKS
RAPID CTY ARPT SUNNY     77  60  55 SE7       30.06F
PIERRE         MOSUNNY   77  63  61 CALM      29.99F HAZE
CUSTER         MOSUNNY   69  52  54 S6        30.17F
ELLSWORTH AFB  SUNNY     78  60  54 SE12      30.06S
PHILIP         MOSUNNY   79  62  56 VRB3      30.02F HAZE
PINE RIDGE     SUNNY     78  60  53 SW5       30.08F
WINNER         FAIR      81  55  40 MISG      30.02F
$$

SDZ004>011-016>023-039-040-031900-
NORTHEAST SOUTH DAKOTA

CITY           SKY/WX    TMP DP  RH WIND       PRES   REMARKS
ABERDEEN       MOSUNNY   79  65  62 NW7       29.97S HAZE
WATERTOWN      MOSUNNY   77  65  66 W8        29.98S
BROOKINGS      SUNNY     73  63  68 W3        30.01S
SISSETON         N/A     80  65  59 N9        29.94S
$$

SDZ017-020-022-023-036>040-048>070-031900-
SOUTHEAST SOUTH DAKOTA

CITY           SKY/WX    TMP DP  RH WIND       PRES   REMARKS
SIOUX FALLS    MOSUNNY   72  61  68 VRB7      30.00S
HURON          MOSUNNY   76  67  73 SW5       29.98S
CHAMBERLAIN    MOSUNNY   77  65  66 CALM      30.00F
MITCHELL       MOSUNNY   74  66  76 S8        30.01S
YANKTON        CLOUDY    72  63  73 W5        30.00S
$$

ABBREVIATIONS USED IN REMARKS
   TC - TEMPERATURE IN CELSIUS
  WCI - WIND CHILL INDEX
   HX - HEAT INDEX
  VSB - VISIBILITY



USA.gov is the U.S. government's official web portal to all federal, state and local government web resources and services.